Temp
63 63 63 63 63 63 63 63 62 62 62 62 62 62 62 62 63 55 48 54 59 65 63 54 55 56 55 51 52 48 41 37 40 42 44 49 47 50 50 49 48 50 49 52 53
62 62 62 62 62 62 62 63 62 62 62 62 62 62 62 62 53 50 60 66 66 65 55 53 51 54 49 48 48 44 38 42 41 41 42 46 47 47 46 46 46 47 50 52 52
61 61 61 62 62 62 62 62 62 62 61 62 62 62 61 58 50 49 65 66 65 63 54 52 52 52 46 47 45 43 41 43 42 43 45 47 46 46 45 44 49 48 47 49 49
61 60 61 61 61 61 62 62 62 61 61 61 62 61 61 53 40 52 64 64 64 58 54 52 50 46 42 42 46 41 44 45 44 45 45 44 46 46 45 46 49 49 50 50 49
60 60 60 60 60 61 62 61 61 61 61 61 62 61 54 48 45 58 62 60 57 56 51 49 47 45 42 43 45 42 43 46 45 44 42 45 41 43 44 48 48 48 49 49 49
59 59 59 59 60 61 61 61 61 61 61 62 62 61 50 43 56 57 55 56 54 53 49 50 46 47 45 42 41 43 44 43 44 44 44 41 40 41 44 45 47 48 47 47 48
59 59 58 59 60 60 60 60 61 61 61 62 62 58 50 45 54 55 56 52 53 51 48 49 48 47 45 42 45 44 39 41 41 43 42 42 40 40 44 46 46 47 47 47 48
58 58 58 58 59 59 60 60 60 61 61 62 62 53 43 55 53 55 55 53 54 54 51 51 51 48 45 45 44 40 39 34 41 42 43 41 38 45 45 44 46 45 47 47 48
58 58 58 58 58 58 59 60 60 61 62 62 52 49 42 59 51 53 52 50 51 52 51 57 50 42 42 36 32 34 29 33 38 43 41 39 39 45 44 43 45 45 45 46 46
58 57 57 58 58 59 59 61 61 60 59 60 56 46 49 46 49 52 52 52 48 48 48 47 40 34 31 29 24 27 28 33 33 38 38 36 38 45 45 44 43 43 44 45 45
57 57 57 57 58 59 55 53 50 48 48 42 41 42 46 50 50 51 51 49 48 45 34 39 31 25 30 33 34 33 30 29 33 36 34 33 35 42 46 41 41 42 43 42 44
57 57 57 57 58 57 50 44 42 44 41 46 45 45 47 46 44 48 51 44 38 31 37 33 28 36 39 38 35 34 28 26 33 35 33 30 32 41 41 38 37 39 39 41 42
57 56 57 57 58 50 44 42 48 45 39 43 44 44 44 47 41 43 47 41 33 29 29 31 35 41 38 33 32 29 27 26 28 31 29 26 27 34 37 38 40 38 37 38 40
56 56 56 58 52 46 42 47 47 45 27 38 42 44 46 44 41 48 46 42 37 29 32 32 37 35 33 31 31 27 32 31 28 21 16 26 16 30 31 34 37 38 35 33 37
55 56 56 58 48 44 45 47 46 44 18 38 41 49 46 42 41 44 46 44 35 31 31 29 32 31 29 31 33 29 32 29 25 13 14 18 11 26 30 33 35 36 35 33 35
55 55 57 51 46 44 46 44 43 28 18 29 38 38 36 39 41 42 43 45 40 35 33 30 35 32 32 33 33 32 27 25 20 10 9 8 11 23 29 32 33 34 35 37 36
55 54 51 49 43 46 45 41 29 20 30 27 31 36 31 32 36 36 36 33 28 22 18 28 29 32 34 29 32 28 16 10 12 9 13 3 11 24 31 34 35 36 36 36 36
55 52 49 47 45 45 41 32 19 18 19 34 34 34 29 32 31 32 31 26 32 28 16 13 19 23 32 29 24 24 17 12 5 8 12 5 13 28 32 33 35 37 37 36 35
54 46 44 45 46 43 35 19 21 24 34 32 32 23 21 30 27 27 27 26 29 27 20 15 20 29 31 31 28 23 13 23 6 -4 3 12 20 31 30 25 33 35 33 34 34
46 43 42 45 45 40 27 26 22 33 34 34 24 25 13 15 25 22 24 30 31 32 27 24 15 21 28 30 27 22 25 14 9 5 0 8 4 22 28 26 26 29 29 31 32
44 37 44 44 42 30 21 16 25 34 34 32 28 24 25 18 23 19 25 31 31 29 31 23 17 18 26 15 15 16 13 13 14 15 7 2 14 20 23 26 23 25 28 25 28
39 29 44 43 29 16 17 27 35 32 35 33 32 29 23 25 23 15 24 28 33 30 27 28 23 10 19 24 26 24 18 21 13 9 8 11 17 26 23 13 10 22 24 23 23
31 30 41 41 20 19 30 31 33 30 30 31 29 32 29 20 19 27 27 33 34 31 28 30 15 6 17 21 24 19 23 23 15 18 9 8 20 18 13 16 16 18 24 21 21
32 25 29 31 26 25 23 24 25 32 32 32 32 33 30 19 26 20 28 32 34 33 40 36 25 16 14 13 13 15 20 23 18 5 17 21 25 26 32 34 34 36 33 28 24
30 26 28 21 25 27 28 25 24 23 31 32 27 29 25 16 21 15 26 29 31 37 33 29 17 20 21 19 14 21 16 18 18 22 14 25 24 18 30 33 36 29 28 28 31
30 26 26 27 29 27 27 27 24 25 28 27 22 29 28 18 27 23 28 28 27 28 28 28 17 14 18 24 25 22 25 25 22 23 21 24 23 33 35 35 33 33 31 27 31
35 35 32 29 26 24 25 29 29 31 31 33 30 28 27 29 31 31 32 33 31 27 25 24 17 11 10 15 14 12 18 23 24 15 22 18 26 31 29 31 33 23 28 30 32
MSLP
1021.14 1020.92 1020.51 1020.15 1019.93 1019.70 1019.45 1019.07 1018.76 1018.50 1018.21 1018.15 1017.95 1017.78 1017.49 1017.28 1017.07 1017.28 1017.94 1018.19 1017.57 1017.08 1016.88 1016.65 1016.35 1016.24 1016.28 1016.72 1016.97 1017.29 1018.10 1018.47 1017.82 1017.56 1017.17 1016.90 1016.79 1016.76 1016.75 1017.04 1017.45 1017.88 1018.36 1018.60 1019.37
1021.12 1020.83 1020.52 1020.22 1019.90 1019.63 1019.32 1019.10 1018.77 1018.51 1018.19 1017.98 1017.94 1017.79 1017.57 1017.49 1017.52 1017.93 1018.09 1017.59 1017.22 1017.01 1016.99 1016.90 1016.71 1016.48 1016.80 1016.95 1017.43 1017.77 1018.48 1018.16 1017.91 1017.84 1017.76 1017.52 1017.32 1017.41 1017.21 1017.47 1017.91 1018.29 1018.69 1019.02 1019.66
1021.17 1020.78 1020.42 1020.16 1019.85 1019.56 1019.24 1018.93 1018.70 1018.38 1018.16 1017.90 1017.78 1017.72 1017.53 1017.53 1017.80 1018.14 1017.79 1017.38 1017.12 1017.04 1017.21 1017.13 1016.94 1016.79 1017.10 1017.24 1017.73 1018.04 1018.23 1018.25 1018.33 1018.27 1018.24 1018.12 1017.95 1017.94 1017.76 1017.85 1017.85 1018.25 1019.02 1019.55 1019.93
1021.26 1020.82 1020.39 1020.04 1019.80 1019.48 1019.03 1018.83 1018.50 1018.17 1017.99 1017.89 1017.66 1017.55 1017.47 1017.59 1018.57 1018.09 1017.72 1017.38 1017.08 1016.90 1017.13 1017.06 1016.98 1017.05 1017.43 1017.66 1017.82 1018.17 1018.39 1018.47 1018.66 1018.72 1018.62 1018.66 1018.65 1018.32 1018.17 1017.78 1017.82 1018.11 1018.49 1019.38 1019.99
1021.20 1020.80 1020.40 1020.07 1019.67 1019.33 1018.90 1018.61 1018.32 1018.00 1017.77 1017.79 1017.62 1017.47 1017.60 1018.04 1018.50 1018.04 1017.82 1017.54 1017.12 1016.95 1017.23 1017.26 1017.25 1017.39 1017.71 1017.97 1018.09 1018.22 1018.61 1018.75 1018.90 1018.97 1018.97 1019.08 1019.11 1018.96 1018.16 1017.88 1018.06 1018.35 1018.92 1019.59 1019.88
1021.10 1020.75 1020.40 1020.04 1019.56 1019.17 1018.75 1018.46 1018.23 1017.94 1017.73 1017.74 1017.62 1017.47 1017.69 1018.26 1018.36 1018.24 1018.08 1017.70 1017.60 1017.40 1017.62 1017.57 1017.70 1017.74 1018.08 1018.40 1018.56 1018.68 1018.84 1019.01 1019.11 1019.23 1019.32 1019.44 1019.33 1019.19 1017.91 1017.72 1018.33 1018.71 1019.11 1019.51 1019.70
1021.01 1020.66 1020.33 1019.97 1019.54 1019.00 1018.57 1018.28 1018.18 1017.92 1017.74 1017.64 1017.53 1017.52 1017.96 1018.64 1018.40 1018.33 1018.13 1017.90 1017.85 1017.82 1017.86 1017.94 1017.97 1018.06 1018.41 1018.85 1019.03 1019.08 1019.29 1019.29 1019.37 1019.42 1019.53 1019.64 1019.33 1018.73 1017.93 1018.04 1018.48 1018.88 1019.09 1019.43 1019.46
1020.87 1020.62 1020.29 1019.88 1019.52 1018.86 1018.40 1018.10 1018.05 1017.90 1017.78 1017.62 1017.50 1017.68 1018.42 1018.32 1018.37 1018.37 1018.26 1017.94 1017.90 1017.82 1017.93 1018.01 1018.09 1018.51 1019.05 1019.37 1019.56 1019.78 1019.82 1019.82 1019.66 1019.63 1019.71 1019.85 1019.04 1017.99 1017.94 1018.19 1018.57 1018.86 1019.11 1019.27 1019.31
1020.72 1020.52 1020.19 1019.76 1019.36 1018.78 1018.19 1017.90 1017.86 1017.75 1017.73 1017.65 1017.73 1017.86 1018.69 1018.36 1018.54 1018.69 1018.67 1018.59 1018.29 1018.03 1017.99 1018.08 1018.39 1019.62 1019.89 1020.29 1020.73 1020.91 1020.72 1020.44 1020.14 1020.13 1020.24 1020.18 1019.29 1018.14 1018.13 1018.48 1018.79 1018.95 1019.06 1019.03 1019.00
1020.54 1020.38 1020.04 1019.63 1019.25 1018.69 1018.12 1017.89 1017.85 1017.75 1017.83 1017.77 1018.13 1018.73 1019.04 1019.47 1019.25 1019.10 1018.74 1018.63 1018.66 1018.52 1018.56 1018.89 1019.77 1020.52 1021.31 1021.43 1021.96 1021.66 1021.60 1021.17 1021.11 1021.24 1020.93 1020.73 1019.62 1018.34 1018.23 1018.59 1018.58 1018.65 1018.66 1018.77 1018.62
1020.41 1020.23 1019.99 1019.58 1019.19 1018.72 1018.32 1018.24 1018.85 1019.04 1019.23 1019.79 1019.98 1019.88 1019.88 1019.79 1019.55 1019.34 1019.21 1019.06 1019.02 1019.35 1020.17 1020.47 1021.32 1021.94 1022.31 1022.16 1022.01 1021.98 1022.16 1022.30 1021.96 1022.22 1022.00 1021.34 1020.40 1018.67 1018.11 1018.38 1018.31 1018.25 1018.20 1018.14 1018.20
1020.34 1020.12 1019.90 1019.55 1019.26 1018.93 1018.98 1020.02 1020.81 1021.10 1020.80 1020.35 1020.10 1020.06 1020.09 1020.20 1019.95 1019.64 1019.38 1019.80 1020.16 1020.99 1021.20 1021.56 1022.35 1022.55 1022.40 1022.44 1022.59 1022.82 1023.25 1023.47 1023.13 1023.23 1023.45 1022.59 1021.12 1018.88 1018.35 1018.12 1018.15 1018.23 1018.05 1017.89 1018.09
1020.24 1020.02 1019.73 1019.39 1019.16 1019.38 1020.29 1021.11 1021.18 1021.05 1021.07 1020.79 1020.44 1020.32 1020.46 1020.44 1020.51 1020.33 1020.16 1020.58 1021.40 1022.22 1022.72 1022.64 1023.13 1022.80 1022.77 1023.25 1023.47 1023.90 1024.45 1024.77 1025.27 1024.87 1024.72 1024.36 1022.00 1019.74 1018.58 1018.20 1018.03 1018.16 1018.16 1017.99 1018.29
1020.15 1019.92 1019.64 1019.27 1019.62 1020.29 1020.98 1021.12 1021.14 1021.29 1021.84 1021.46 1020.72 1020.57 1020.54 1020.46 1020.74 1020.55 1020.54 1020.99 1021.94 1023.09 1023.42 1023.70 1023.52 1023.46 1023.64 1024.19 1024.64 1025.26 1025.56 1026.06 1026.67 1027.17 1027.51 1026.48 1024.79 1021.30 1019.62 1018.89 1018.44 1018.48 1018.62 1018.70 1018.91
1020.10 1019.88 1019.76 1019.26 1020.04 1020.87 1021.42 1021.19 1021.19 1021.34 1022.58 1022.16 1021.06 1020.42 1020.62 1021.02 1021.37 1020.89 1020.85 1020.87 1022.36 1023.59 1024.14 1024.77 1024.39 1024.32 1024.63 1025.17 1025.41 1026.14 1026.47 1027.18 1028.25 1029.26 1029.55 1028.61 1027.48 1021.95 1020.36 1019.24 1018.72 1018.71 1018.99 1019.24 1019.45
1020.13 1019.90 1019.72 1020.02 1020.68 1021.50 1021.27 1021.25 1021.47 1022.50 1023.25 1022.60 1021.86 1021.51 1021.62 1021.86 1022.02 1021.79 1021.50 1021.60 1022.70 1023.73 1024.48 1025.20 1025.04 1025.24 1025.47 1025.78 1026.17 1026.78 1027.50 1028.52 1029.64 1030.68 1031.11 1030.37 1028.74 1023.70 1020.95 1019.44 1018.82 1018.83 1019.23 1019.55 1019.89
1020.24 1020.12 1020.15 1020.57 1021.40 1021.43 1021.32 1021.80 1022.95 1023.87 1024.63 1024.02 1023.08 1022.92 1023.25 1023.60 1023.22 1023.26 1023.10 1023.31 1024.08 1024.88 1026.23 1026.10 1026.16 1026.19 1026.19 1026.51 1026.97 1027.66 1029.18 1030.45 1031.34 1032.05 1032.02 1030.87 1029.35 1023.77 1020.38 1019.57 1019.09 1018.99 1019.22 1019.56 1019.92
1020.36 1020.48 1021.11 1021.28 1021.42 1021.43 1021.80 1022.68 1024.67 1025.13 1024.87 1024.15 1023.94 1024.08 1024.59 1024.93 1024.68 1024.35 1024.56 1024.89 1025.07 1025.69 1027.46 1028.04 1027.40 1027.48 1027.36 1027.65 1028.22 1029.08 1030.03 1031.60 1032.90 1033.98 1032.89 1031.24 1028.15 1022.72 1020.43 1019.74 1019.45 1019.25 1019.35 1019.79 1020.20
1020.45 1020.93 1021.30 1021.55 1021.41 1021.62 1022.62 1024.57 1025.04 1025.07 1024.58 1024.54 1024.68 1025.36 1026.10 1025.99 1025.84 1025.52 1025.63 1025.82 1025.80 1026.27 1027.43 1028.42 1028.40 1028.24 1028.19 1028.38 1029.06 1030.06 1030.82 1031.61 1033.15 1034.96 1034.18 1030.29 1026.76 1022.75 1020.79 1020.12 1019.82 1019.66 1019.94 1020.09 1020.32
1020.69 1021.27 1021.81 1021.65 1021.54 1022.15 1023.63 1025.48 1025.89 1025.31 1024.85 1024.63 1025.38 1026.23 1027.36 1027.02 1026.83 1026.72 1026.57 1026.10 1026.19 1026.63 1027.26 1028.68 1029.41 1029.39 1029.04 1029.08 1029.88 1030.25 1031.35 1032.03 1033.05 1034.33 1033.86 1030.94 1028.25 1024.37 1022.35 1021.69 1021.02 1021.00 1020.90 1020.70 1020.68
1020.92 1021.64 1021.72 1021.68 1021.93 1022.99 1025.34 1026.24 1026.11 1025.41 1025.15 1025.06 1025.51 1026.45 1027.10 1027.60 1027.49 1027.57 1026.89 1026.42 1026.23 1026.79 1027.34 1028.61 1029.72 1030.12 1029.77 1029.76 1029.97 1030.99 1031.55 1032.34 1032.96 1033.18 1032.89 1031.38 1026.82 1023.63 1022.72 1022.17 1022.49 1021.99 1021.65 1021.45 1021.26
1021.63 1022.42 1021.94 1021.76 1023.47 1025.49 1026.47 1026.41 1026.24 1025.58 1025.13 1025.12 1025.35 1026.36 1027.13 1027.70 1028.16 1027.95 1027.16 1026.44 1026.17 1026.58 1027.53 1028.40 1029.68 1030.37 1029.74 1029.46 1029.52 1030.04 1030.66 1031.23 1032.45 1032.53 1032.22 1030.88 1025.32 1022.84 1022.41 1022.70 1023.06 1022.38 1021.97 1021.88 1021.74
1022.56 1022.93 1022.26 1022.39 1024.52 1026.47 1026.85 1026.68 1026.38 1025.94 1025.54 1025.51 1025.71 1026.14 1027.11 1027.60 1028.08 1027.57 1026.90 1026.30 1026.23 1026.64 1027.18 1028.06 1029.62 1030.59 1029.93 1030.18 1029.92 1030.04 1030.25 1030.55 1031.25 1031.18 1030.32 1029.71 1024.32 1022.72 1022.32 1022.39 1022.55 1022.68 1022.06 1021.95 1021.87
1023.17 1023.89 1023.84 1024.24 1025.70 1026.01 1026.85 1026.90 1026.61 1026.14 1025.75 1025.67 1025.89 1026.20 1026.92 1027.57 1027.82 1027.82 1027.21 1026.52 1026.31 1026.55 1026.98 1027.75 1029.14 1030.32 1030.28 1030.12 1030.14 1030.25 1029.83 1029.95 1030.33 1030.50 1028.81 1025.16 1022.62 1023.43 1022.21 1021.79 1021.99 1021.84 1021.47 1021.30 1020.97
1023.91 1025.31 1025.68 1026.03 1026.26 1026.21 1026.18 1026.62 1026.57 1026.31 1026.07 1026.03 1026.34 1026.42 1026.96 1027.89 1028.01 1028.02 1027.52 1027.13 1026.76 1026.69 1027.21 1028.21 1029.27 1029.91 1029.67 1029.56 1029.76 1029.07 1029.14 1029.16 1028.95 1028.12 1028.13 1021.82 1022.62 1023.28 1021.44 1020.97 1020.52 1020.93 1020.58 1020.37 1019.79
1024.10 1025.14 1026.14 1026.52 1026.25 1026.29 1026.43 1026.46 1026.31 1026.27 1026.20 1026.32 1026.54 1026.44 1026.78 1027.27 1027.27 1027.51 1027.43 1027.51 1027.45 1027.47 1027.79 1028.49 1029.24 1029.93 1029.20 1028.97 1028.55 1027.35 1027.59 1026.79 1026.60 1026.30 1025.27 1023.77 1020.85 1022.28 1021.24 1020.44 1019.82 1019.96 1019.85 1019.48 1018.69
1024.45 1024.88 1025.25 1026.87 1026.63 1026.46 1026.20 1026.02 1025.90 1025.92 1026.10 1026.04 1026.31 1026.57 1026.84 1026.78 1026.93 1027.11 1027.38 1027.50 1027.47 1027.76 1028.35 1028.92 1029.56 1030.41 1029.32 1028.67 1028.09 1026.47 1024.59 1024.50 1024.16 1024.33 1024.36 1023.24 1021.08 1021.25 1020.75 1020.09 1019.87 1020.00 1019.17 1018.44 1017.92
Wind_Speed
12 13 14 13 13 14 14 14 12 10 7 6 7 8 9 9 6 6 5 5 7 14 11 7 1 1 2 3 4 3 5 2 3 3 1 5 1 2 1 4 2 2 5 2 13
11 13 14 15 14 14 14 14 12 11 8 5 6 7 7 6 3 7 3 12 10 9 5 6 3 4 3 2 3 5 4 7 1 1 1 3 2 4 2 1 1 0 3 8 13
12 12 13 14 15 15 15 14 13 11 9 4 4 6 6 4 1 3 9 13 11 5 1 2 2 1 3 2 2 2 4 3 1 2 1 3 0 4 3 4 6 6 6 9 9
13 13 12 13 14 15 16 16 14 12 9 5 3 5 4 2 1 3 14 13 10 3 1 1 1 3 3 3 0 3 1 1 1 2 3 2 6 6 3 4 3 3 10 12 12
11 12 12 13 13 14 16 16 15 11 6 4 4 4 1 5 1 5 13 10 3 2 4 2 3 1 4 3 2 2 2 3 1 2 2 3 3 5 8 7 3 6 7 12 11
11 11 11 13 13 15 15 15 13 7 4 3 4 2 1 3 3 6 8 5 5 4 4 5 2 2 5 3 2 2 2 2 1 1 2 3 2 3 4 2 6 7 10 9 11
11 11 12 13 15 15 15 14 10 5 3 3 4 2 7 3 2 6 7 2 3 2 2 2 2 3 2 3 1 3 2 2 0 1 1 2 5 7 6 2 5 8 8 9 11
9 10 12 12 15 16 16 14 7 4 4 2 2 3 3 2 1 4 7 2 5 3 2 1 2 5 3 2 4 2 3 2 0 3 1 1 7 3 2 5 7 8 7 8 11
8 10 12 13 14 15 16 10 3 3 2 3 2 4 1 3 4 5 3 3 6 2 2 1 4 4 4 4 5 7 2 1 2 4 3 2 7 3 2 1 6 7 8 9 8
8 10 12 13 14 15 12 1 4 3 5 1 3 5 5 4 5 5 4 3 3 3 3 6 6 4 5 6 3 3 2 2 3 5 3 4 15 14 8 9 10 10 9 9 9
7 9 12 12 13 15 5 3 5 4 10 4 1 0 3 7 2 5 4 4 3 8 4 5 8 2 2 2 1 2 2 2 3 4 4 4 11 19 10 7 9 11 11 10 9
7 9 11 11 10 10 4 6 1 1 5 2 1 1 1 1 4 7 6 3 6 3 4 7 3 2 0 4 3 4 2 4 5 3 3 5 17 19 11 6 4 7 8 8 5
5 8 11 11 1 6 5 3 3 2 5 3 2 2 3 4 2 7 5 2 6 5 4 6 1 3 3 5 4 2 2 2 3 8 1 8 9 6 3 3 4 4 4 1 7
5 8 11 8 5 2 3 3 3 1 6 6 4 4 3 1 4 2 2 3 6 4 2 5 3 3 4 4 3 1 3 2 3 5 3 5 7 9 4 7 4 5 5 3 5
6 7 5 4 5 3 1 2 1 3 4 3 5 1 5 5 4 6 2 4 4 2 6 4 4 5 5 2 2 1 3 2 3 4 4 6 5 11 4 5 6 6 4 3 4
6 8 4 4 4 1 1 2 2 10 6 3 3 5 5 6 6 6 4 7 3 4 5 1 2 3 1 2 3 2 3 5 4 4 4 4 4 9 4 4 4 3 5 6 6
6 13 6 2 2 1 2 3 8 6 5 5 2 4 3 5 4 8 6 6 3 6 5 6 2 3 4 2 3 6 7 5 8 6 6 2 1 13 7 6 5 6 9 9 7
5 5 5 3 0 2 3 7 6 3 6 2 2 3 4 5 3 6 2 3 5 5 4 4 8 3 5 3 2 3 6 7 6 2 6 2 7 10 5 5 6 7 7 6 8
4 2 3 4 2 3 6 6 9 7 3 5 3 6 5 2 3 5 4 0 1 2 6 4 5 1 4 3 3 2 3 2 7 2 4 4 10 12 3 7 7 8 6 10 10
3 2 2 7 2 4 7 4 2 2 2 1 4 2 4 4 3 5 2 2 1 4 3 3 4 2 4 2 5 5 2 5 5 2 6 7 8 9 9 8 7 7 8 9 7
4 3 2 5 3 7 4 5 3 4 1 1 4 3 2 4 3 2 3 0 2 2 5 4 5 6 2 3 7 2 2 4 4 5 6 3 9 9 9 8 7 8 9 8 9
3 2 3 2 6 2 3 4 2 2 3 1 3 4 5 5 2 1 2 5 3 5 3 1 4 3 10 1 3 4 6 5 6 7 3 3 14 7 8 2 2 10 9 6 7
3 1 2 3 4 1 3 2 1 1 1 2 2 1 4 5 3 3 2 1 4 3 5 4 2 5 10 5 4 3 4 4 3 2 7 3 11 2 4 6 5 9 8 8 7
4 3 5 5 1 6 5 3 1 2 1 2 2 2 3 3 3 3 2 1 4 2 5 4 4 9 9 8 4 3 4 5 6 4 8 21 31 10 18 19 15 16 15 11 9
4 0 2 1 3 4 3 4 3 1 2 1 4 3 5 2 2 2 2 2 1 1 3 5 6 6 9 9 6 12 8 10 14 14 12 33 27 5 15 21 23 10 11 12 16
4 4 3 1 1 3 3 4 6 2 4 3 4 3 4 6 6 6 4 2 6 1 5 2 4 2 9 10 15 22 17 20 20 20 19 26 35 19 21 21 18 16 14 14 18
1 1 4 2 1 4 3 4 5 5 1 1 3 3 2 6 5 5 5 5 6 6 6 5 2 3 8 3 6 11 17 19 12 5 12 15 23 12 17 20 19 8 12 16 16
Wind_Direction
4 360 359 359 355 349 349 349 350 346 338 325 332 334 343 351 32 35 44 274 310 319 329 278 274 33 70 75 44 108 66 209 231 173 303 1 78 6 344 109 55 23 147 225 129
351 352 350 348 345 342 342 341 341 339 333 327 332 338 344 347 79 55 266 336 330 339 6 18 40 353 48 66 24 88 121 218 160 176 269 307 34 341 41 49 198 15 18 119 136
341 341 345 342 340 337 335 335 334 334 325 310 329 338 347 345 66 326 328 339 335 348 256 306 297 15 72 57 23 140 179 157 223 337 345 306 23 315 122 244 223 201 161 154 149
331 336 340 341 338 336 330 329 330 329 320 297 331 342 348 47 224 283 339 336 330 322 278 315 14 74 89 129 52 120 88 64 145 350 355 344 320 322 215 229 346 248 164 164 169
327 332 336 336 337 331 329 327 328 328 320 299 330 355 43 51 354 311 337 336 4 24 51 35 63 79 130 117 79 99 149 80 103 23 349 343 261 268 267 250 305 113 149 180 183
330 330 331 333 333 333 332 329 330 330 329 308 329 350 92 83 306 336 335 347 13 37 20 31 90 107 98 70 88 109 94 99 52 48 20 336 286 4 278 312 210 159 191 195 192
329 331 330 331 330 334 333 332 329 331 329 318 341 75 61 150 338 326 354 345 2 37 71 32 355 43 109 99 153 108 77 356 309 22 336 43 281 238 252 333 196 216 205 209 215
324 327 324 326 327 333 330 326 318 323 319 328 16 68 97 296 296 2 340 332 359 33 76 350 5 97 52 109 40 52 47 54 181 10 28 347 274 244 22 176 227 220 223 214 219
320 323 322 327 330 332 328 315 302 319 318 339 58 89 82 343 26 318 9 345 309 351 39 35 66 78 32 69 25 17 176 310 335 38 335 36 273 242 70 156 262 245 232 227 228
320 322 326 330 331 339 329 108 359 50 357 56 55 47 15 323 310 335 322 2 21 336 32 49 50 67 32 54 222 271 23 313 278 351 351 276 265 276 259 249 251 250 246 230 226
320 326 326 331 337 350 6 22 16 353 41 88 294 6 337 303 271 349 3 347 12 50 50 10 65 76 326 7 28 82 73 304 290 23 338 265 283 283 290 265 262 253 250 241 231
325 328 325 327 338 8 63 74 60 183 85 16 50 30 310 357 357 344 358 66 61 71 343 26 84 317 291 34 60 62 72 296 292 43 5 339 291 281 285 253 246 281 278 236 185
326 332 327 322 17 42 75 69 331 345 93 360 34 22 317 18 52 330 24 72 81 53 18 114 127 18 74 37 47 56 139 338 263 329 15 331 292 314 323 304 319 348 317 209 192
339 340 334 327 57 145 48 331 352 353 77 310 351 10 0 2 35 313 16 107 39 149 64 79 5 63 53 76 68 358 5 34 11 40 274 21 281 302 328 301 285 323 7 75 114
349 342 15 68 137 60 192 342 359 61 52 298 314 274 325 60 300 5 347 29 70 48 78 266 18 35 57 46 66 151 36 64 88 91 47 349 69 271 325 294 259 242 245 219 197
14 350 156 34 54 42 46 72 50 47 258 336 312 352 38 20 9 320 25 48 129 82 42 77 44 53 72 69 56 79 55 41 63 94 24 269 109 286 257 225 297 232 225 216 205
48 45 58 42 129 261 96 47 45 124 339 287 22 35 102 357 10 26 11 19 65 55 354 350 17 355 31 35 39 60 48 339 355 10 226 300 33 245 259 270 246 237 219 209 204
46 78 56 64 328 127 60 53 89 234 224 312 33 74 79 354 35 357 29 36 43 74 90 103 333 31 353 62 180 54 132 149 225 273 273 356 245 252 223 287 271 269 228 204 200
121 37 48 348 13 74 74 67 203 197 170 163 65 73 323 9 125 51 25 227 51 79 132 100 289 10 45 20 73 278 39 168 98 78 42 256 289 295 308 279 255 255 209 210 214
97 73 22 325 66 68 74 205 147 246 331 77 143 129 164 279 56 57 1 284 68 40 120 170 351 321 301 91 27 131 145 34 6 337 299 293 279 244 299 287 277 271 238 244 247
60 65 269 360 59 49 135 208 231 249 252 95 166 127 160 167 162 181 193 307 108 92 79 121 99 288 19 186 182 33 359 38 124 153 198 280 261 216 236 252 265 269 256 252 250
89 48 327 44 54 29 109 156 185 304 42 66 99 114 167 165 143 67 222 202 147 149 101 92 132 258 228 131 165 169 190 157 130 269 233 166 269 239 243 264 274 285 273 289 272
93 251 347 84 129 75 127 115 187 243 180 139 111 136 195 162 68 203 217 156 133 135 162 171 336 356 338 11 359 210 202 162 113 85 198 170 258 285 286 328 269 272 300 279 281
84 29 338 49 85 127 144 179 190 268 242 118 129 96 140 38 23 182 232 144 170 166 160 152 187 180 208 205 147 205 200 213 157 154 270 240 272 306 293 299 304 304 297 287 273
32 167 192 262 341 101 97 133 132 171 320 68 7 184 159 120 41 220 225 328 81 183 159 144 222 228 243 245 213 248 214 221 222 239 223 275 267 277 277 292 292 275 283 284 276
112 117 10 96 44 93 0 214 160 241 139 256 156 185 164 157 188 195 157 155 221 87 173 178 270 108 275 233 245 262 252 244 236 244 253 263 275 264 281 283 288 284 281 270 272
3 73 99 359 56 90 225 180 200 140 237 151 166 115 218 239 225 232 222 225 214 175 194 171 161 40 266 345 307 285 230 236 231 181 215 252 263 292 280 285 301 300 280 277 282